Regional Weather Roundup
Issued by NWS

Home | Current Version | Previous Version | Text Only | Print | Product List | Glossary On
Versions: 1 2 3 4 5 6 7 8 9 10 11 12 13 14 15 16 17 18 19 20 21 22 23 24 25 26 27 28 29 30 31 32 33 34 35 36 37 38 39 40 41 42 43 44 45 46 47 48 49 50
000
ASUS43 KMKX 251600
RWRWI

WISCONSIN REGIONAL WEATHER ROUNDUP
NATIONAL WEATHER SERVICE MILWAUKEE/SULLIVAN WI
1100 AM CDT THU AUG 25 2016

NOTE: "FAIR" INDICATES FEW OR NO CLOUDS BELOW 12,000 FEET WITH NO
SIGNIFICANT WEATHER AND/OR OBSTRUCTIONS TO VISIBILITY.

WIZ001-002-006>008-014>016-023>028-251700-
NORTHWEST WISCONSIN

CITY           SKY/WX    TMP DP  RH WIND       PRES   REMARKS
SUPERIOR ARPT  SUNNY     70  55  58 W14       29.94S
ASHLAND        SUNNY     72  56  57 SW15G22   29.95R
HAYWARD        SUNNY     70  54  56 VRB7G18   29.99R
SIREN          SUNNY     69  52  53 W13       30.00R
CUMBERLAND     SUNNY     68  57  68 W9        30.01R
RICE LAKE      SUNNY     71  59  65 W8G16     30.02R
CHETEK         NOT AVBL
LADYSMITH      SUNNY     72  59  62 SW9       30.02R
EAU CLAIRE     NOT AVBL
MENOMONIE      SUNNY     76  58  53 SW13      30.03R
NEW RICHMOND   SUNNY     70  57  63 W12       30.03R
OSCEOLA        MOSUNNY   70  57  65 W12       30.05R
$$

WIZ003>005-009-010-017-018-251700-
NORTH CENTRAL WISCONSIN

CITY           SKY/WX    TMP DP  RH WIND       PRES   REMARKS
MANITOWISH WTR NOT AVBL
ARBOR VITAE    SUNNY     72  57  59 W12       29.99S
WOODRUFF       SUNNY     72  57  59 W12       29.99S
RHINELANDER    SUNNY     73  56  54 W10       30.01R
EAGLE RIVER    SUNNY     69  53  57 W10G17    29.99R
LAND O LAKES   SUNNY     70  51  51 W14       29.99S
PHILLIPS       SUNNY     70  57  62 W7        30.00R
TOMAHAWK       SUNNY     71  55  58 W10       30.01S
MEDFORD        SUNNY     70  59  67 W10       30.02R
MERRILL        SUNNY     73  58  60 W8        30.02S
$$

WIZ029-030-035-036-043>047-251700-
CENTRAL WISCONSIN

CITY           SKY/WX    TMP DP  RH WIND       PRES   REMARKS
WAUSAU         SUNNY     74  56  53 W10       30.01R
MOSINEE        NOT AVBL
MARSHFIELD     SUNNY     75  59  57 W8        30.04R
STEVENS POINT  CLOUDY    68  58  72 SW6       30.04R
WAUPACA        CLOUDY    74  60  60 W6        30.03R
WAUTOMA        CLOUDY    73  61  65 W8        30.04R
WISC RAPIDS    CLOUDY    73  62  68 VRB6      30.05R
CAMP DOUGLAS   NOT AVBL
$$

WIZ011>013-019>022-031-037>040-048>050-251700-
NORTHEAST WISCONSIN

CITY           SKY/WX    TMP DP  RH WIND       PRES   REMARKS
ANTIGO         SUNNY     70  56  61 W12       30.02S
SHAWANO        CLOUDY    74  60  60 W7        30.00S
OCONTO         NOT AVBL
STURGEON BAY   MOSUNNY   71  60  68 NW9       29.99S
GREEN BAY      CLOUDY    72  62  71 W7        30.00S
MANITOWOC      NOT AVBL
APPLETON       PTSUNNY   72  57  60 VRB5      30.01R
CLINTONVILLE   CLOUDY    72  55  56 W7        30.02R
OSHKOSH        CLOUDY    74  61  63 NW6       30.02R
$$

WIZ032>034-041-042-053>061-251700-
SOUTHWEST WISCONSIN

CITY           SKY/WX    TMP DP  RH WIND       PRES   REMARKS
LA CROSSE      SUNNY     75  62  64 CALM      30.06R
SPARTA         SUNNY     71  62  72 W3        30.06R
VIROQUA        SUNNY     72  60  67 CALM      30.08R
BOSCOBEL       CLOUDY    75  60  59 CALM      30.07R
PRAIRIE DU CHI CLOUDY    72  59  65 CALM      30.07R
PLATTEVILLE    MOSUNNY   73  63  71 CALM      30.07R
$$

WIZ056-057-062-063-064-067-068-251700-
SOUTH CENTRAL WISCONSIN

CITY           SKY/WX    TMP DP  RH WIND       PRES   REMARKS
REEDSBURG      NOT AVBL
BARABOO/DELLS  SUNNY     73  57  56 W7        30.06R
LONE ROCK      NOT AVBL
MINERAL POINT  SUNNY     73  61  64 N5        30.07R
MADISON        PTSUNNY   76  61  59 NW6       30.05R
MIDDLETON      MOSUNNY   75  61  61 NW6       30.06R
WATERTOWN      SUNNY     73  62  68 N3        30.03R
MONROE         SUNNY     73  61  64 N6        30.06R
JANESVILLE     MOSUNNY   75  63  64 NW8       30.04
$$

WIZ051-052-058>065-066-070>072-251700-
SOUTHEAST WISCONSIN

CITY           SKY/WX    TMP DP  RH WIND       PRES   REMARKS
MILWAUKEE      MOSUNNY   78  61  55 NW7       30.02R HX  80
WAUKESHA       SUNNY     72  61  68 NW7       30.04
MILWAUKEE/TIMM NOT AVBL
RACINE         SUNNY     77  65  66 N3        30.03R
BURLINGTON     SUNNY     73  62  69 NW3       30.03R
KENOSHA        MOSUNNY   76  67  73 VRB3      30.02R
FOND DU LAC    CLOUDY    73  61  65 NW8       30.03R
SHEBOYGAN      CLOUDY    76  59  55 NW9       30.01R
WEST BEND      CLOUDY    73  61  64 NW8       30.02R
JUNEAU         SUNNY     71  60  68 NW6       30.04S
$$

LSZ147-162-251700-
LAKE SUPERIOR

STATION/POSITION TIME  TEMP    WIND        PRES    WAVE
                       AIR SEA DIR/SP/G            HT/PER
                 (UTC) (F)     (DEG/KT/KT) (MB)    (FT/S)
W MID LAKE BUOY  1450   67 68  250/ 16/ 19 1011.5S   3/ 4
DEVILS ISLAND    1500   65     240/ 18/ 20 1012.8F
PORT WING        1500   68     270/ 10/ 14 1013.5F
SAXON HARBOR     1400   67     210/  5/ 10 1013.9S
$$

LMZ867-665-643>646-251700-
LAKE MICHIGAN

STATION/POSITION TIME  TEMP    WIND        PRES    WAVE
                       AIR SEA DIR/SP/G            HT/PER
                 (UTC) (F)     (DEG/KT/KT) (MB)    (FT/S)
CHAMBERS ISLAND  1500   71     240/  5/  8 1014.9
S GREEN BAY BUOY 1500   69 72  280/  8/ 10 1014.7
N MID LAKE BUOY  1450   68 70  270/ 12/ 14 1013.2R   2/ 6
NORTHPORT PIER   1540   72     300/  8/ 12 1014.6R
SISTER BAY       1537   73     340/  8/  9   N/A
KEWAUNEE LAKESHO 1500   70     300/  7/  9 1014.8R
SHEBOYGAN LAKESH 1500   71     320/  6/  7 1014.8R
PORT WASHINGTON  1500   73     310/  6/ 12 1016.3R
ATWATER BUOY     1500   66 51  300/  2/  4   N/A
MILWAUKEE LAKESH 1510   72     320/  4/  5   N/A
S MID LAKE BUOY  1450   73 74  340/ 10/ 12 1014.5R   1
KENOSHA   LAKESH 1500   73     300/  6/ 10 1015.9R
$$

TC  - TEMPERATURE IN CELSIUS
VSB - VISIBILITY IN STATUTE MILES
WCI - WIND CHILL INDEX
HX  - HEAT INDEX





USA.gov is the U.S. government's official web portal to all federal, state and local government web resources and services.